ATLAS CENTAUR R/B, 3598

Orbit data source: Space-Track

ATLAS CENTAUR R/B, 3598 is space debris in LEO originally from a launch on Sat, 07 Dec 1968 UTC launched from the Air Force Eastern Test Range (AFETR). Debris objects in space refer to the collection of defunct objects orbiting the Earth. Examples of debris include non-operational satellites, rocket bodies, and fragments generated from explosions, collisions, or faulty payload assembly.

Loading next visibility...
Identifier
3598, 1968-110B
Orbit
LEO
Country
Flag of USUS
Related business
Manufacturer
GD/Convair
Mission
Spacecraft
Bus & Motor
CENTAUR D, Unknown motor
Mass
~1,700 kg wet, ~1,700 kg dry
Launch date (UTC)
Icon of a cake. It is the launch day of the satellite!1968-12-07 (57 years ago)
Launch vehicle
Unknown
Launch site
Air Force Eastern Test Range (AFETR)
Object type
Payload
Rocket body
Debris
Shape & HBR
Unknown
Radar Cross Section
Large (>1 m²)

Expand to show TLE details & history
Last TLE update: 12 hours ago

TLE from 12 hours ago
0 ATLAS CENTAUR R/B
1 03598U 68110B   25340.76513941  .00001536  00000-0  33332-3 0  9993
2 03598  34.9908 121.9697 0046314 160.2185 200.0316 14.57414337996540
Epoch: 2025-12-06T18:21Z
TLE epoch observation values (Epoch: 2025-12-06T18:21:48.045Z)
Latitude
-0.00001°
Longitude
130.73132°
Altitude
731.289 km
Speed
7.475 km/s
True Right ascension
08h 07m 52s
True Declination
0° 00' 00"
Sunlit
Object was in full shadow at epoch
Visualization orbit readout
Latitude
Unknown
Longitude
Unknown
Altitude
Unknown
Speed
Unknown
Apparent Right ascension
Unknown
Apparent Declination
Unknown
Sunlit
N/A
Visualization observer readout
Local Sidereal Time
04:38:30
Azimuth
Unknown
Elevation
Unknown
Doppler factor
Unknown
Orbital elements
Apogee altitude
737.496 km
Perigee altitude
671.89 km
Semi-major axis
7,082.83 km
Eccentricity
0.00463
Inclination
34.9908°
RAAN
121.9697°
Arg. of periapsis
160.2185°
True anomaly
199.85079°
Mean anomaly
200.0316°
Eccentric anomaly
199.9411°
Mean motion
3.6411 °/min
Orbital period
98.87 mins
BSTAR
0.00033332
Loading maneuver chart data...
Computing Atmospheric mass density...
Loading historical data...
Loading historical data...
Loading historical data...
Loading historical data...
Loading historical data...
Loading historical data...
Loading historical data...
Other satellites on launch #110 in the year 1968 (1968-12-07 UTC)

Documentation

Showing up to 5 results
|